KEY: A-CATALOGNUM B-EPOCHTIME C-DECAY D-ELSETNUM E-INCLINATION F-RAAN
G-ECCENTRICITY H-ARGPERIGEE I-MNANOM J-MNMOTION K-ORBITNUM Z-CHECKSUM
TO ALL RADIO AMATEURS BT
AO-07
1 07530U 74089B 07101.18389491 -.00000028 00000-0 10000-3 0 8483
2 07530 101.5221 141.1463 0012056 027.4967 332.6740 12.53572781482727
AO-10
1 14129U 83058B 07101.51481063 .00000104 00000-0 10000-3 0 03755
2 14129 026.7147 282.4986 6056714 013.1465 357.4315 02.05869490179192
UO-11
1 14781U 84021B 07102.52291206 .00000139 00000-0 25987-4 0 3456
2 14781 098.1957 123.9432 0009647 029.4523 330.7209 14.79540200240021
RS-10/11
1 18129U 87054A 07102.52691907 .00000019 00000-0 38634-5 0 2682
2 18129 082.9220 106.7564 0012170 350.6477 009.4447 13.72786115992221
RS-15
1 23439U 94085A 07101.55259071 -.00000039 00000-0 10597-3 0 00821
2 23439 064.8135 114.6822 0161587 202.6498 156.7236 11.27551986506188
FO-29
1 24278U 96046B 07102.53269364 -.00000065 00000-0 -27187-4 0 4779
2 24278 098.5429 071.0141 0349885 253.4112 102.8336 13.52928769526021
SO-33
1 25509U 98061B 07101.71864611 -.00000068 00000-0 -27960-4 0 9048
2 25509 031.4308 241.5467 0355755 206.2840 151.9333 14.28158418441740
AO-40
1 26609U 00072B 07101.45772371 .00000095 00000-0 10000-3 0 8624
2 26609 005.0304 157.0776 7987550 300.8972 004.7483 01.25586238 29603
VO-52
1 28650U 05017B 07101.37071430 .00000503 00000-0 70724-4 0 5996
2 28650 097.8344 173.5718 0028434 110.7970 249.6347 14.81294742104525
PO-63
1 29712U 07001D 07102.44732721 .00000567 00000-0 82460-4 0 2657
2 29712 097.9272 162.5070 0013916 347.6617 012.4247 14.79629944 13610
AO-16
1 20439U 90005D 07101.56054533 -.00000014 00000-0 99036-5 0 70
2 20439 098.1950 099.7937 0011695 029.3025 330.8814 14.31755525899011
LO-19
1 20442U 90005G 07102.51852712 -.00000029 00000-0 41272-5 0 9350
2 20442 098.1824 110.1324 0012501 026.0315 334.1491 14.31996489899290
AO-27
1 22825U 93061C 07101.47948309 -.00000034 00000-0 29335-5 0 6588
2 22825 098.3258 074.2899 0009363 097.8258 262.3987 14.29204403705968
IO-26
1 22826U 93061D 07102.44824017 .00000013 00000-0 21391-4 0 3559
2 22826 098.3184 076.3145 0009809 090.9814 269.2502 14.29450634706184
PO-28
1 22829U 93061G 07101.52685569 .00000038 00000-0 30708-4 0 6324
2 22829 098.3078 076.6106 0010802 070.2461 289.9885 14.30149850706284
GO-32
1 25397U 98043D 07102.14097608 -.00000050 00000-0 -35691-5 0 2747
2 25397 098.4218 152.2235 0002072 080.3891 279.7523 14.23123010454768
MO-46
1 26548U 00057D 07102.37398918 .00000009 00000-0 19136-4 0 7671
2 26548 064.5571 026.2647 0023249 206.1967 153.7984 14.83121281353776
NO-44
1 26931U 01043C 07101.83039377 -.00000063 00000-0 77626-5 0 5605
2 26931 067.0545 318.4221 0006924 278.3138 081.7171 14.29478944288616
SO-50
1 27607U 02058C 07101.57802804 -.00000050 00000-0 14000-4 0 2853
2 27607 064.5581 287.2656 0046300 020.1659 340.1263 14.71246334231320
CO-55
1 27844U 03031E 07101.04836950 .00000060 00000-0 48443-4 0 00024
2 27844 098.7199 110.2640 0009333 289.6453 070.3718 14.20502923195941
CO-57
1 27848U 03031J 07101.06040162 .00000024 00000-0 31883-4 0 09638
2 27848 098.7200 109.4964 0009115 291.0831 068.9372 14.20322918195923
AO-51
1 28375U 04025K 07101.54159651 .00000019 00000-0 18615-4 0 7882
2 28375 098.1218 144.2732 0085127 024.7333 335.7901 14.40562025146114
CO-56
1 28941U 06005C 07102.31793858 .00025118 24392-5 26860-3 0 4058
2 28941 098.1397 156.1810 0236126 145.7851 215.8866 15.37072860 63303
HO-59
1 29484U 06041F 07101.56498801 .00042095 28484-5 31234-3 0 2640
2 29484 098.2958 141.4425 0228139 143.9982 217.7003 15.45802798 30767
NO-60
1 29661U 06055C 07102.35774123 .00124728 17603-4 26772-3 0 1705
2 29661 051.6386 074.6680 0011848 084.3403 275.8939 15.98168784 17862
NO-61
1 29664U 06055F 07102.41479308 .00025273 11290-4 10510-3 0 1133
2 29664 051.6339 078.0430 0016345 083.6597 276.6272 15.87439621 17696
NOAA-10
1 16969U 86073A 07102.47838220 .00000055 00000-0 40956-4 0 6174
2 16969 098.7509 119.6106 0012368 003.7351 356.3925 14.27322173 69857
NOAA-11
1 19531U 88089A 07102.29243524 .00000248 00000-0 15128-3 0 6163
2 19531 098.8089 192.2783 0011300 215.1425 144.9011 14.14842403956832
NOAA-12
1 21263U 91032A 07102.11475147 -.00000122 00000-0 -32813-4 0 1090
2 21263 098.7525 099.4690 0012092 301.7783 058.2227 14.25525668826839
MET-3/5
1 21655U 91056A 07101.92694076 .00000051 00000-0 10000-3 0 03222
2 21655 082.5504 049.7462 0014266 018.6296 341.5344 13.17010755752680
MET-2/21
1 22782U 93055A 07101.40535853 .00000040 00000-0 22923-4 0 07966
2 22782 082.5438 094.8965 0024031 064.9723 295.3935 13.83616777687281
OKEAN-4
1 23317U 94066A 07101.62994376 .00000336 00000-0 38710-4 0 02343
2 23317 082.5417 358.6313 0023661 109.3949 250.9825 14.82489143674199
NOAA-14
1 23455U 94089A 07102.40040547 -.00000149 00000-0 -54613-4 0 5943
2 23455 098.9930 168.2192 0008567 286.0603 073.9647 14.13709656633346
SICH-1
1 23657U 95046A 07101.62493529 .00000242 00000-0 27715-4 0 00373
2 23657 082.5276 139.5710 0025825 101.5363 258.8774 14.81469810626177
NOAA-15
1 25338U 98030A 07102.15262866 .00000110 00000-0 65701-4 0 9532
2 25338 098.5308 100.7007 0009984 218.0288 142.0164 14.24635253463286
RESURS
1 25394U 98043A 07101.95505626 -.00000005 00000-0 16185-4 0 06150
2 25394 098.4494 159.0875 0002305 040.6842 319.4509 14.24132120454927
FENGYUN1
1 25730U 99025A 07102.87752762 .00000482 00000-0 31066-3 0 574
2 25730 098.6889 089.2286 0021085 317.3603 042.5931 14.07457264408276
OKEAN-0
1 25860U 99039A 07102.90336701 .00000058 00000-0 16085-4 0 246
2 25860 097.7322 108.2038 0000614 097.0819 263.0458 14.73443517415883
NOAA-16
1 26536U 00055A 07102.16750323 -.00000115 00000-0 -37150-4 0 3677
2 26536 099.1122 077.9780 0010677 003.6308 356.4931 14.12417453337788
NOAA-17
1 27453U 02032A 07102.53458822 .00000027 00000-0 30735-4 0 3776
2 27453 098.5827 173.3983 0010855 284.7150 075.2847 14.23868571249375
NOAA-18
1 28654U 05018A 07102.16701670 .00000326 00000-0 20517-3 0 9143
2 28654 098.8227 044.5728 0015195 094.7389 265.5515 14.11055134 97543
HUBBLE
1 20580U 90037B 07102.54714083 .00000400 00000-0 18246-4 0 8488
2 20580 028.4676 258.1627 0003599 121.0866 239.0076 15.00221696730099
UARS
1 21701U 91063B 07102.85925169 .00004959 00000-0 86193-4 0 411
2 21701 056.9736 237.3088 0099562 067.7964 293.3619 15.47532224855635
PO-34
1 25520U 98064B 07102.51817088 .00000466 00000-0 13239-4 0 7131
2 25520 028.4601 188.2580 0005499 256.2663 103.7331 15.16968968467549
ISS
1 25544U 98067A 07102.96938838 .00014610 00000-0 84568-4 0 105
2 25544 051.6337 080.9122 0016100 061.5766 034.5938 15.78721214480471
OO-38
1 26063U 00004C 07102.45630717 -.00000028 00000-0 10691-4 0 8849
2 26063 100.2266 092.9397 0036898 345.3659 014.6456 14.35801381377618
NO-45
1 26932U 01043D 07101.68888672 -.00000036 00000-0 18114-4 0 5694
2 26932 067.0561 318.5478 0006231 290.5657 069.4770 14.29554154288631
UWE-1
1 28892U 05043C 07101.36822932 .00000029 00000-0 15958-4 0 7200
2 28892 098.1392 359.3153 0016753 323.9758 036.0295 14.59486068 77461
CO-58
1 28895U 05043F 07101.28054771 .00000129 00000-0 36992-4 0 7002
2 28895 098.1411 359.4165 0017442 324.5154 035.4889 14.59535810 77331
NCUBE2
1 28897U 05043H 07102.66517506 .00000186 00000-0 48666-4 0 2242
2 28897 098.1375 000.7356 0016823 322.1521 037.8489 14.59697661 69813
NMARS
1 29662U 06055D 07102.87222256 .00226542 33995-4 33838-3 0 2013
2 29662 051.6344 070.5297 0010573 087.6732 272.5534 16.04191592 17856
FCAL
1 29667U 06055J 07102.39950319 .00016867 00000-0 70015-4 0 1071
2 29667 051.6336 078.7034 0017050 086.4213 273.8743 15.85742395 17553
FALCON
1 30776U 07006E 07101.81285535 .00000335 00000-0 27673-4 0 285
2 30776 035.4339 255.0214 0001810 282.6362 077.4151 15.02676820 5063
/EX
1
0
SB KEPS @ AMSAT $ORB07102.O
Orbital Elements 07102.OSCAR
HR AMSAT ORBITAL ELEMENTS FOR OSCAR SATELLITES
FROM WA5QGD FORT WORTH,TX April 12, 2007
Send Subscribe/unsubscribe to KEPS at
http://www.amsat.org/mailman/listinfo/keps
BID: ORB07102.O
TO ALL RADIO AMATEURS BT
Satellite: AO-07
Catalog number: 07530
Epoch time: 07101.18389491
Element set: 848
Inclination: 101.5221 deg
RA of node: 141.1463 deg
Eccentricity: 0.0012056
Arg of perigee: 027.4967 deg
Mean anomaly: 332.6740 deg
Mean motion: 12.53572781 rev/day
Decay rate: -2.8e-07 rev/day^2
Epoch rev: 48272
Checksum: 286
Satellite: AO-10
Catalog number: 14129
Epoch time: 07101.51481063
Element set: 0375
Inclination: 026.7147 deg
RA of node: 282.4986 deg
Eccentricity: 0.6056714
Arg of perigee: 013.1465 deg
Mean anomaly: 357.4315 deg
Mean motion: 02.05869490 rev/day
Decay rate: 1.04e-06 rev/day^2
Epoch rev: 17919
Checksum: 298
Satellite: UO-11
Catalog number: 14781
Epoch time: 07102.52291206
Element set: 345
Inclination: 098.1957 deg
RA of node: 123.9432 deg
Eccentricity: 0.0009647
Arg of perigee: 029.4523 deg
Mean anomaly: 330.7209 deg
Mean motion: 14.79540200 rev/day
Decay rate: 1.39e-06 rev/day^2
Epoch rev: 24002
Checksum: 273
Satellite: RS-10/11
Catalog number: 18129
Epoch time: 07102.52691907
Element set: 268
Inclination: 082.9220 deg
RA of node: 106.7564 deg
Eccentricity: 0.0012170
Arg of perigee: 350.6477 deg
Mean anomaly: 009.4447 deg
Mean motion: 13.72786115 rev/day
Decay rate: 1.9e-07 rev/day^2
Epoch rev: 99222
Checksum: 298
Satellite: RS-15
Catalog number: 23439
Epoch time: 07101.55259071
Element set: 0082
Inclination: 064.8135 deg
RA of node: 114.6822 deg
Eccentricity: 0.0161587
Arg of perigee: 202.6498 deg
Mean anomaly: 156.7236 deg
Mean motion: 11.27551986 rev/day
Decay rate: -3.9e-07 rev/day^2
Epoch rev: 50618
Checksum: 309
Satellite: FO-29
Catalog number: 24278
Epoch time: 07102.53269364
Element set: 477
Inclination: 098.5429 deg
RA of node: 071.0141 deg
Eccentricity: 0.0349885
Arg of perigee: 253.4112 deg
Mean anomaly: 102.8336 deg
Mean motion: 13.52928769 rev/day
Decay rate: -6.5e-07 rev/day^2
Epoch rev: 52602
Checksum: 319
Satellite: SO-33
Catalog number: 25509
Epoch time: 07101.71864611
Element set: 904
Inclination: 031.4308 deg
RA of node: 241.5467 deg
Eccentricity: 0.0355755
Arg of perigee: 206.2840 deg
Mean anomaly: 151.9333 deg
